HADES-R

Last updated on Thu Oct 30 2025 00:03:11 GMT+0000 (Coordinated Universal Time)

1 62690U 25009CK 25302.19931519 .00117991 00000+0 24465-2 0 9999 2 62690 97.3956 23.5872 0002744 282.5255 77.5687 15.45283145 43877
UTC large
Height (km)
Speed (km/s)
/
Latitude / Longitude
Inclination (degrees)
Orbital Period (minutes)
Azimuth
Elevation
Range (km)
Doppler Factor

Next 0 passes for location: London (51.5072 / 0.1276)

Sorry there are no passes over London.